Weather History for Redwood Falls, MN

Change the Weather History Date:

Wednesday, May 13, 2009

  Actual Average Record
Temperature  
Mean Temperature 64 °F -  
Max Temperature 73 °F 68 °F 94 °F (1932)
Min Temperature 51 °F 45 °F 27 °F (1953)
Degree Days  
Heating Degree Days 2    
Growing Degree Days 14 (Base 50)    
Moisture  
Dew Point 48 °F    
Average Humidity 66    
Maximum Humidity 96    
Minimum Humidity 22    
Precipitation  
Precipitation 0.04 in - - ()
Sea Level Pressure  
Sea Level Pressure 29.57 in    
Wind  
Wind Speed 16 mph (WSW)    
Max Wind Speed 31 mph    
Max Gust Speed 47 mph    
Visibility 8 miles    
Events Rain    
Averages and records for this station are not official NWS values.
T = Trace of Precipitation, MM = Missing Value Source: NWS Daily Summary

Daily Weather History Graph

Daily Weather History Graph

Search for Another Location

Airport:

Trip Planner

Search our weather history database for the weather conditions in past years. The results will help you decide how hot, cold, wet, or windy it might be!

Date:

Astronomy

May. 13, 2009 Rise Set
Actual Time 5:54 AM CDT 8:39 PM CDT
Civil Twilight 5:21 AM CDT 9:13 PM CDT
Nautical Twilight 4:38 AM CDT 9:55 PM CDT
Astronomical Twilight 3:49 AM CDT 10:45 PM CDT
Moon 12:22 AM CDT (5/13) 9:00 AM CDT (5/13)
Length of Visible Light 15h 52m
Length of Day
14h 44m
Waning Gibbous, 82% of the Moon is Illuminated
May 13
Waning Gibbous
May 17
Last Quarter
May 24
New
May 30
First Quarter
Jun 7
Full

Hourly Weather History & Observations

Time (CDT) Temp. Dew Point Humidity Pressure Visibility Wind Dir Wind Speed Gust Speed Precip Events Conditions
12:44 AM 59.0 °F 57.2 °F 94% 29.57 in 2.5 mi SSE 17.3 mph - 0.00 in Rain Light Rain
12:53 AM 59.0 °F 57.0 °F 93% 29.56 in 2.5 mi South 16.1 mph - 0.00 in   Overcast
1:53 AM 59.0 °F 57.0 °F 93% 29.54 in 2.5 mi SSE 16.1 mph - 0.01 in   Overcast
2:06 AM 59.0 °F 57.2 °F 94% 29.54 in 3.0 mi SSE 16.1 mph - N/A   Overcast
2:53 AM 59.0 °F 57.9 °F 96% 29.54 in 7.0 mi South 11.5 mph - 0.00 in   Overcast
3:24 AM 59.0 °F 57.2 °F 94% 29.54 in 4.0 mi South 13.8 mph - N/A   Overcast
3:53 AM 59.0 °F 57.9 °F 96% 29.51 in 4.0 mi SSE 15.0 mph - 0.01 in Rain Light Rain
4:00 AM 60.8 °F 57.2 °F 88% 29.52 in 5.0 mi South 13.8 mph - 0.01 in Rain Light Rain
4:53 AM 60.1 °F 59.0 °F 96% 29.51 in 7.0 mi South 13.8 mph - 0.01 in   Overcast
5:53 AM 61.0 °F 59.0 °F 93% 29.51 in 6.0 mi South 10.4 mph - N/A   Overcast
6:51 AM 60.8 °F 57.2 °F 88% 29.53 in 6.0 mi SSW 10.4 mph - N/A   Overcast
6:53 AM 61.0 °F 57.9 °F 90% 29.53 in 6.0 mi SSW 10.4 mph - N/A   Overcast
7:36 AM 60.8 °F 59.0 °F 94% 29.55 in 9.0 mi SW 9.2 mph - N/A   Scattered Clouds
7:53 AM 62.1 °F 59.0 °F 90% 29.54 in 9.0 mi SW 8.1 mph - N/A   Partly Cloudy
8:53 AM 63.0 °F 55.0 °F 75% 29.54 in 10.0 mi WNW 16.1 mph 21.9 mph N/A   Clear
9:53 AM 64.9 °F 52.0 °F 63% 29.55 in 10.0 mi WNW 10.4 mph - N/A   Clear
10:53 AM 68.0 °F 50.0 °F 52% 29.54 in 10.0 mi WNW 15.0 mph - N/A   Clear
11:53 AM 64.9 °F 48.0 °F 54% 29.56 in 10.0 mi West 9.2 mph - 0.01 in Rain Light Rain
12:53 PM 66.9 °F 48.9 °F 52% 29.57 in 10.0 mi West 9.2 mph - 0.00 in   Mostly Cloudy
1:53 PM 70.0 °F 45.0 °F 41% 29.57 in 10.0 mi West 12.7 mph - N/A   Mostly Cloudy
2:53 PM 71.1 °F 43.0 °F 36% 29.56 in 10.0 mi West 8.1 mph - N/A   Partly Cloudy
3:53 PM 73.9 °F 37.9 °F 27% 29.56 in 10.0 mi West 21.9 mph 34.5 mph N/A   Scattered Clouds
4:53 PM 71.1 °F 35.1 °F 27% 29.58 in 10.0 mi West 25.3 mph 39.1 mph N/A   Partly Cloudy
5:53 PM 66.9 °F 30.9 °F 26% 29.61 in 10.0 mi West 31.1 mph 47.2 mph N/A   Scattered Clouds
6:53 PM 64.9 °F 25.0 °F 22% 29.64 in 10.0 mi West 29.9 mph 40.3 mph N/A   Clear
7:53 PM 61.0 °F 25.0 °F 25% 29.65 in 10.0 mi West 28.8 mph 39.1 mph N/A   Clear
8:53 PM 57.9 °F 28.9 °F 33% 29.66 in 10.0 mi West 25.3 mph 36.8 mph N/A   Clear
9:53 PM 55.0 °F 32.0 °F 42% 29.68 in 10.0 mi West 17.3 mph - N/A   Clear
10:53 PM 54.0 °F 32.0 °F 43% 29.71 in 10.0 mi West 23.0 mph 36.8 mph N/A   Partly Cloudy
11:53 PM 51.1 °F 35.1 °F 54% 29.76 in 10.0 mi WNW 24.2 mph 33.4 mph N/A   Clear